Weather History for Huntsville, AL

Change the Weather History Date:

Saturday, September 8, 2012

  Actual Average Record
Temperature  
Mean Temperature 69 °F 76 °F  
Max Temperature 78 °F 88 °F 106 °F (1925)
Min Temperature 59 °F 65 °F 52 °F (1953)
Degree Days  
Heating Degree Days 0 0  
Month to date heating degree days 0 0  
Since 1 July heating degree days 0 0  
Cooling Degree Days 4 12  
Month to date cooling degree days 107 100  
Year to date cooling degree days 1948 1695  
Growing Degree Days 20 (Base 50)    
Moisture  
Dew Point 65 °F    
Average Humidity 78    
Maximum Humidity 87    
Minimum Humidity 68    
Precipitation  
Precipitation 0.02 in 0.12 in 1.97 in (1967)
Month to date precipitation 0.79 0.91  
Year to date precipitation 34.91 37.23  
Snow  
Snow 0.00 in - - ()
Month to date snowfall 0.0  
Since 1 July snowfall 0.0  
Since 1 September snowfall 0.0  
Snow Depth 0.00 in    
Sea Level Pressure  
Sea Level Pressure 29.87 in    
Wind  
Wind Speed 6 mph (NNW)    
Max Wind Speed 18 mph    
Max Gust Speed 26 mph    
Visibility 10 miles    
Events Rain    
T = Trace of Precipitation, MM = Missing Value Source: NWS Daily Summary

Daily Weather History Graph

Daily Weather History Graph

Search for Another Location

Airport:

Trip Planner

Search our weather history database for the weather conditions in past years. The results will help you decide how hot, cold, wet, or windy it might be!

Date:

Astronomy

Sep. 08, 2012 Rise Set
Actual Time 6:25 AM CDT 7:03 PM CDT
Civil Twilight 6:00 AM CDT 7:28 PM CDT
Nautical Twilight 5:30 AM CDT 7:58 PM CDT
Astronomical Twilight 4:59 AM CDT 8:28 PM CDT
Moon No Moon Rise 1:48 PM CDT (9/8)
Length of Visible Light 13h 28m
Length of Day
12h 37m
Waning Gibbous, 48% of the Moon is Illuminated
Sep 8
Waning Gibbous
Sep 15
New
Sep 22
First Quarter
Sep 29
Full
Oct 8
Last Quarter

Hourly Weather History & Observations

Time (CDT) Temp. Dew Point Humidity Pressure Visibility Wind Dir Wind Speed Gust Speed Precip Events Conditions
12:53 AM 75.9 °F 71.1 °F 85% 29.83 in 10.0 mi SW 5.8 mph - N/A   Overcast
1:53 AM 77.0 °F 71.1 °F 82% 29.82 in 10.0 mi SSW 6.9 mph - N/A   Overcast
2:53 AM 75.0 °F 66.0 °F 73% 29.82 in 10.0 mi Calm Calm - N/A   Scattered Clouds
3:53 AM 73.0 °F 66.0 °F 79% 29.80 in 10.0 mi WSW 4.6 mph - N/A   Mostly Cloudy
4:53 AM 72.0 °F 66.9 °F 84% 29.79 in 10.0 mi SSW 5.8 mph - N/A   Mostly Cloudy
5:53 AM 72.0 °F 66.9 °F 84% 29.80 in 10.0 mi East 3.5 mph - N/A   Mostly Cloudy
6:53 AM 73.0 °F 68.0 °F 84% 29.83 in 10.0 mi Calm Calm - N/A   Overcast
7:44 AM 73.4 °F 68.0 °F 83% 29.87 in 10.0 mi Calm Calm - N/A   Overcast
7:53 AM 73.0 °F 68.0 °F 84% 29.85 in 10.0 mi Calm Calm - N/A   Overcast
8:53 AM 73.4 °F 68.0 °F 83% 29.87 in 10.0 mi Calm Calm - N/A Rain Light Rain
9:00 AM 73.4 °F 68.0 °F 83% 29.87 in 10.0 mi NW 3.5 mph - 0.01 in Rain Light Rain
9:53 AM 75.9 °F 69.1 °F 79% 29.86 in 10.0 mi WNW 6.9 mph - 0.01 in   Overcast
10:53 AM 75.0 °F 68.0 °F 79% 29.86 in 10.0 mi NW 8.1 mph - N/A   Overcast
11:30 AM 75.2 °F 68.0 °F 78% 29.88 in 10.0 mi WNW 6.9 mph - N/A   Overcast
11:53 AM 70.0 °F 66.0 °F 87% 29.87 in 10.0 mi North 10.4 mph 20.7 mph 0.00 in Rain Light Rain
12:16 PM 69.8 °F 66.2 °F 88% 29.90 in 10.0 mi North 10.4 mph - 0.00 in Rain Light Rain
12:53 PM 71.1 °F 66.9 °F 87% 29.88 in 10.0 mi North 8.1 mph - 0.01 in   Overcast
1:11 PM 71.6 °F 66.2 °F 83% 29.91 in 10.0 mi NNW 8.1 mph - N/A   Overcast
1:20 PM 71.6 °F 66.2 °F 83% 29.90 in 10.0 mi NNW 5.8 mph - N/A   Overcast
1:53 PM 71.1 °F 66.0 °F 84% 29.88 in 10.0 mi North 8.1 mph - 0.00 in   Overcast
2:53 PM 71.1 °F 64.0 °F 78% 29.87 in 10.0 mi North 12.7 mph 18.4 mph 0.00 in   Overcast
3:16 PM 71.6 °F 64.4 °F 78% 29.89 in 10.0 mi North 6.9 mph - N/A   Mostly Cloudy
3:53 PM 73.0 °F 64.0 °F 73% 29.86 in 10.0 mi NNE 10.4 mph - N/A   Mostly Cloudy
4:53 PM 73.9 °F 62.1 °F 66% 29.87 in 10.0 mi NNE 10.4 mph - N/A   Mostly Cloudy
5:53 PM 73.0 °F 62.1 °F 68% 29.88 in 10.0 mi NNE 5.8 mph - N/A   Scattered Clouds
6:53 PM 69.1 °F 61.0 °F 75% 29.89 in 10.0 mi NNE 5.8 mph - N/A   Partly Cloudy
7:53 PM 66.0 °F 61.0 °F 84% 29.91 in 10.0 mi North 5.8 mph - N/A   Scattered Clouds
8:53 PM 66.0 °F 60.1 °F 81% 29.94 in 10.0 mi NNW 6.9 mph - N/A   Scattered Clouds
9:53 PM 64.9 °F 57.0 °F 75% 29.96 in 10.0 mi North 8.1 mph - N/A   Partly Cloudy
10:53 PM 62.1 °F 55.0 °F 78% 29.97 in 10.0 mi North 4.6 mph - N/A   Clear
11:53 PM 60.1 °F 54.0 °F 80% 29.97 in 10.0 mi North 4.6 mph - N/A   Clear